CW9861 Weather Reports


Display with metric or nautical units.
time (UTC)temp
F
wind
direction
speed
MPH
gust
MPH
rain 1hr
in
rain 24hr
in
rain mn
in
humidity
%
barometer
mb
20260505005958 71 276 4.0 12.0 0.00 0.00 0.00 43 995.4
20260505005459 71 228 4.0 16.0 0.00 0.00 0.00 43 995.5
20260505004957 71 266 3.0 16.0 0.00 0.00 0.00 42 995.5
20260505004458 71 216 7.0 13.0 0.00 0.00 0.00 41 995.3
20260505003958 72 193 2.0 10.0 0.00 0.00 0.00 41 995.3
20260505003457 72 236 5.0 10.0 0.00 0.00 0.00 41 995.2
20260505002958 72 184 4.0 9.0 0.00 0.00 0.00 40 995.1
20260505002458 72 212 3.0 9.0 0.00 0.00 0.00 40 995.0
20260505001958 72 223 4.0 9.0 0.00 0.00 0.00 40 994.9
20260505001458 73 226 5.0 11.0 0.00 0.00 0.00 39 994.9
20260505000958 73 240 5.0 11.0 0.00 0.00 0.00 39 994.9
20260505000458 73 305 3.0 8.0 0.00 0.00 0.00 40 994.9
20260505000000 73 333 3.0 11.0 0.00 0.00 0.00 40 994.9
20260504221959 74 337 6.0 15.0 0.00 0.00 0.00 37 996.9
20260504221458 75 235 6.0 17.0 0.00 0.00 0.00 38 997.0
20260504220958 75 266 6.0 17.0 0.00 0.00 0.00 37 996.9
20260504220458 74 212 4.0 14.0 0.00 0.00 0.00 37 997.0
20260504220000 74 322 3.0 15.0 0.00 0.00 0.00 38 997.0
20260504215459 74 236 5.0 20.0 0.00 0.00 0.00 38 997.0
20260504214959 74 232 9.0 20.0 0.00 0.00 0.00 37 997.1
20260504214459 74 209 8.0 18.0 0.00 0.00 0.00 36 997.1
20260504213959 74 280 4.0 18.0 0.00 0.00 0.00 39 997.2
20260504213459 74 225 6.0 24.0 0.00 0.00 0.00 37 997.3
20260504212959 74 295 9.0 24.0 0.00 0.00 0.00 36 997.4
20260504212459 74 309 6.0 18.0 0.00 0.00 0.00 36 997.4
20260504211959 75 199 2.0 12.0 0.00 0.00 0.00 36 997.4
20260504211459 75 226 5.0 19.0 0.00 0.00 0.00 35 997.4
20260504210959 74 221 7.0 19.0 0.00 0.00 0.00 35 997.6
20260504210459 74 195 7.0 14.0 0.00 0.00 0.00 37 997.6
20260504205958 74 236 7.0 16.0 0.00 0.00 0.00 34 997.6
20260504205459 74 281 9.0 17.0 0.00 0.00 0.00 34 997.5
20260504204958 74 214 8.0 18.0 0.00 0.00 0.00 33 997.7
20260504204457 73 331 4.0 18.0 0.00 0.00 0.00 33 998.0
20260504203958 73 243 9.0 20.0 0.00 0.00 0.00 32 998.0
20260504203458 74 240 11.0 20.0 0.00 0.00 0.00 30 998.0
20260504202958 74 328 5.0 15.0 0.00 0.00 0.00 32 997.9
20260504202458 74 271 4.0 19.0 0.00 0.00 0.00 35 997.9
20260504201958 75 234 7.0 19.0 0.00 0.00 0.00 34 998.0
20260504201458 75 219 5.0 13.0 0.00 0.00 0.00 33 998.0
20260504200958 75 224 6.0 19.0 0.00 0.00 0.00 35 998.1
20260504200459 75 271 8.0 19.0 0.00 0.00 0.00 34 998.2
20260504195958 75 221 7.0 17.0 0.00 0.00 0.00 32 998.4
20260504195458 75 259 6.0 17.0 0.00 0.00 0.00 32 998.3
20260504194959 75 235 4.0 19.0 0.00 0.00 0.00 32 998.3
20260504194458 75 313 9.0 19.0 0.00 0.00 0.00 29 998.4
20260504193958 75 313 7.0 17.0 0.00 0.00 0.00 32 998.5
20260504193458 74 337 8.0 16.0 0.00 0.00 0.00 28 998.5
20260504192958 75 223 7.0 19.0 0.00 0.00 0.00 30 998.5
20260504192458 75 291 7.0 19.0 0.00 0.00 0.00 30 998.4
20260504191958 76 280 7.0 20.0 0.00 0.00 0.00 27 998.5
20260504191457 75 211 11.0 22.0 0.00 0.00 0.00 28 998.5
20260504190958 75 317 9.0 22.0 0.00 0.00 0.00 27 998.4
20260504190458 75 188 10.0 21.0 0.00 0.00 0.00 30 998.4
20260504185958 75 222 7.0 21.0 0.00 0.00 0.00 28 998.3
20260504185458 76 213 9.0 21.0 0.00 0.00 0.00 30 998.3
20260504184957 75 343 10.0 19.0 0.00 0.00 0.00 27 998.4
20260504184458 75 220 10.0 17.0 0.00 0.00 0.00 28 998.4
20260504183958 76 232 9.0 17.0 0.00 0.00 0.00 29 998.4
20260504180457 75 313 10.0 21.0 0.00 0.00 0.00 27 998.3
20260504175958 75 280 8.0 16.0 0.00 0.00 0.00 28 998.5
20260504175458 76 288 6.0 15.0 0.00 0.00 0.00 27 998.5
20260504174958 76 206 7.0 18.0 0.00 0.00 0.00 27 998.7
20260504174457 76 303 7.0 18.0 0.00 0.00 0.00 30 998.9
20260504173958 76 299 7.0 15.0 0.00 0.00 0.00 30 998.7
20260504173457 75 234 8.0 13.0 0.00 0.00 0.00 31 998.8
20260504172958 76 240 3.0 21.0 0.00 0.00 0.00 33 998.9
20260504172458 75 320 3.0 21.0 0.00 0.00 0.00 32 998.9
20260504171958 75 196 5.0 15.0 0.00 0.00 0.00 34 999.0
20260504171457 75 286 7.0 17.0 0.00 0.00 0.00 31 999.1
20260504170957 75 313 7.0 17.0 0.00 0.00 0.00 32 999.1
20260504170457 74 9 7.0 17.0 0.00 0.00 0.00 34 999.2
20260504140959 63 200 4.0 13.0 0.00 0.00 0.00 62 1001.1
20260504140459 62 232 5.0 13.0 0.00 0.00 0.00 63 1001.1
20260504130458 57 230 5.0 10.0 0.00 0.00 0.00 72 1001.8
20260504110459 47 232 1.0 3.0 0.00 0.00 0.00 85 1001.4
20260504081958 49 224 1.0 3.0 0.00 0.00 0.00 80 1001.9
20260504081459 49 295 1.0 3.0 0.00 0.00 0.00 80 1002.0
20260504080958 49 307 0.0 3.0 0.00 0.00 0.00 80 1002.1
20260504080458 49 247 1.0 2.0 0.00 0.00 0.00 80 1002.1
20260504050457 51 162 3.0 8.0 0.00 0.00 0.00 77 1003.7
20260504045959 51 242 4.0 9.0 0.00 0.00 0.00 77 1003.8
20260504045458 51 210 4.0 10.0 0.00 0.00 0.00 77 1003.9
20260504044958 51 223 3.0 9.0 0.00 0.00 0.00 77 1003.9
20260504044458 51 226 4.0 9.0 0.00 0.00 0.00 77 1004.0
20260504043958 51 165 3.0 9.0 0.00 0.00 0.00 76 1004.0
20260504043459 51 180 2.0 10.0 0.00 0.00 0.00 76 1004.0
20260504042958 51 180 4.0 10.0 0.00 0.00 0.00 76 1004.1
20260504042458 51 266 4.0 9.0 0.00 0.00 0.00 76 1004.1
20260504041958 51 238 4.0 9.0 0.00 0.00 0.00 76 1004.2
20260504041458 51 180 3.0 9.0 0.00 0.00 0.00 76 1004.2
20260504041000 51 220 4.0 13.0 0.00 0.00 0.00 76 1004.2
20260504040458 51 271 6.0 13.0 0.00 0.00 0.00 76 1004.2
20260504035959 51 218 2.0 10.0 0.00 0.00 0.00 75 1004.2
20260504035458 51 180 3.0 13.0 0.00 0.00 0.00 75 1004.3
20260504034959 51 186 5.0 13.0 0.00 0.00 0.00 75 1004.3
20260504034458 51 266 6.0 10.0 0.00 0.00 0.00 75 1004.4
20260504033958 51 166 4.0 10.0 0.00 0.00 0.00 74 1004.6
20260504033458 51 217 5.0 10.0 0.00 0.00 0.00 74 1004.7
20260504015000 53 176 1.0 8.0 0.00 0.00 0.00 68 1004.9
20260504014459 53 234 2.0 6.0 0.00 0.00 0.00 68 1005.0
20260504013959 53 225 1.0 7.0 0.00 0.00 0.00 67 1004.9
20260504013459 53 210 1.0 10.0 0.00 0.00 0.00 67 1004.9
20260504013000 53 214 4.0 10.0 0.00 0.00 0.00 67 1005.0
20260504012459 53 226 3.0 8.0 0.00 0.00 0.00 67 1004.9
20260504011959 53 228 3.0 8.0 0.00 0.00 0.00 67 1004.9
20260504011459 54 183 3.0 7.0 0.00 0.00 0.00 66 1004.9
20260504010959 54 188 1.0 11.0 0.00 0.00 0.00 66 1005.0
20260504010459 54 239 4.0 10.0 0.00 0.00 0.00 66 1005.0